{"data":{"norad_id":55414,"epoch":"2026-09-20T22:00:03.000096Z","epoch_age_seconds":60634,"freshness":"FRESH","line1":"1 55414U 23014Z   26263.91670139  .00083094  00000+0  58868-2 0  9994","line2":"2 55414  70.0009 312.0873 0004427 234.6421 306.8506 15.04325108  5710","mean_motion":15.04325108,"eccentricity":0.0004427,"inclination_deg":70.0009,"raan_deg":312.0873,"arg_perigee_deg":234.6421,"mean_anomaly_deg":306.8506,"bstar":0.0058868,"rev_number":571,"period_min":95.723988939763,"perigee_km":550.50944101874,"apogee_km":556.64678157829,"semimajor_km":6931.7151112985,"source":"CELESTRAK","updated_at":"2026-09-21T09:00:33.218061Z"}}